Flag for U.S.A. Weather past 2 weeks in Provo, Utah, U.S.A.

Now
43 °F

Clear.


Feels Like: 43 °F
Forecast: 42 / 68 °F
Wind: No wind

Location: Provo Municipal

Current Time: Oct 23, 2014 at 1:07:16 AM

Latest Report: Oct 23, 2014 at 12:35 AM


Visibility: 10 mi

Pressure: 30.19 "Hg

Humidity: 61%

Dew point: 30 °F

Location of ProvoLocation

Historic Weather in Provo — Graph

°F

Provo temperature yesterday

Maximum temperature yesterday: 61 °F (at 2:59 PM)
Minimum temperature yesterday: 36 °F (at 6:47 AM)
Average temperature yesterday: 45 °F

Past Weeks' High & Low Weather Summary

 TemperatureHumidityPressure
High75 °F (Oct 20, 3:51 PM)100% (Oct 16, 9:54 AM)30.35 "Hg (Oct 16, 9:54 AM)
Low36 °F (Oct 13, 3:35 AM)25% (Oct 15, 12:47 PM)29.89 "Hg (Oct 15, 3:51 PM)
Average52 °F59%30.08 "Hg
* Reported Oct 7 11:15 PM — Oct 22 11:55 PM, Provo, Weather by CustomWeather, © 2014

Note: Actual official high and low records may vary slightly from our data, if they occured in-between our weather recording intervals... More about our weather records

Advertising

Provo weather history for previous 24 hours

 ConditionsComfort  
Time TempWeatherWind HumidityBarometerVisibility
11:55 PM
Oct 22
45 °FClear.6 mph71%30.19 "Hg10 mi
11:35 PM43 °FClear.No wind76%30.19 "Hg10 mi
11:15 PM43 °FClear.No wind81%30.19 "Hg10 mi
10:55 PM43 °FClear.No wind76%30.19 "Hg10 mi
10:35 PM45 °FClear.5 mph76%30.19 "Hg10 mi
10:15 PM45 °FClear.No wind66%30.19 "Hg10 mi
9:55 PM46 °FClear.3 mph66%30.19 "Hg10 mi
9:35 PM46 °FClear.5 mph66%30.19 "Hg10 mi
9:15 PM52 °FClear.3 mph54%30.19 "Hg10 mi
8:55 PM48 °FClear.5 mph62%30.19 "Hg10 mi
7:50 PM54 °FPassing clouds.10 mph54%30.17 "Hg10 mi
6:49 PM55 °FPassing clouds.5 mph51%30.15 "Hg10 mi
5:48 PM61 °FPassing clouds.5 mph42%30.15 "Hg10 mi
4:54 PM61 °FPassing clouds.3 mph31%30.16 "Hg10 mi
3:51 PM59 °FPassing clouds.3 mph36%30.16 "Hg10 mi
2:59 PM61 °FPassing clouds.3 mph36%30.17 "Hg10 mi
1:53 PM57 °FSunny.3 mph48%30.19 "Hg10 mi
12:59 PM54 °FSunny.3 mph47%30.21 "Hg10 mi
11:49 AM50 °FSunny.3 mph50%30.22 "Hg10 mi
10:50 AM50 °FScattered clouds.3 mph47%30.23 "Hg10 mi
9:59 AM43 °FScattered clouds.5 mph66%30.22 "Hg10 mi
8:55 AM41 °FPassing clouds.5 mph66%30.21 "Hg10 mi
7:50 AM36 °FPassing clouds.3 mph75%30.19 "Hg10 mi
6:47 AM36 °FClear.6 mph75%30.17 "Hg10 mi
6:35 AM37 °FClear.5 mph70%30.17 "Hg10 mi
5:55 AM37 °FClear.7 mph70%30.16 "Hg10 mi
5:35 AM37 °FClear.7 mph70%30.15 "Hg10 mi
5:15 AM37 °FClear.6 mph75%30.15 "Hg10 mi
4:55 AM37 °FClear.6 mph70%30.14 "Hg10 mi
4:35 AM37 °FClear.6 mph70%30.13 "Hg10 mi
4:15 AM39 °FClear.6 mph70%30.13 "Hg10 mi
3:55 AM39 °FClear.8 mph70%30.12 "Hg10 mi
3:35 AM39 °FClear.9 mph70%30.12 "Hg10 mi
3:15 AM41 °FClear.7 mph76%30.12 "Hg10 mi
2:55 AM41 °FClear.8 mph70%30.12 "Hg10 mi
2:35 AM41 °FClear.5 mph70%30.12 "Hg10 mi
2:15 AM41 °FClear.7 mph66%30.11 "Hg10 mi
1:55 AM43 °FClear.7 mph66%30.11 "Hg10 mi
1:35 AM41 °FClear.No wind66%30.10 "Hg10 mi
1:15 AM45 °FClear.3 mph61%30.10 "Hg10 mi
Weather by CustomWeather, © 2014

See weather overviewHow to use our weather pages